Regional Weather Roundup
Issued by NWS

Home | Current Version | Previous Version | Text Only | Print | Product List | Glossary Off
Versions: 1 2 3 4 5 6 7 8 9 10 11 12 13 14 15 16 17 18 19 20 21 22 23 24 25 26 27 28 29 30 31 32 33 34 35 36 37 38 39 40 41 42 43 44 45 46 47 48 49 50

000
ASUS43 KLSX 212110
RWRMO

WEATHER SUMMARY FOR MISSOURI
NATIONAL WEATHER SERVICE SPRINGFIELD MO
300 PM CST TUE FEB 21 2017

NOTE: "FAIR" INDICATES FEW OR NO CLOUDS BELOW 12,000 FEET WITH NO
       SIGNIFICANT WEATHER AND/OR OBSTRUCTIONS TO VISIBILITY.
       CURRENT SKY AND/OR WEATHER CONDITIONS ARE NOT AVAILABLE FOR
       CHILLICOTHE AND FARMINGTON.

MOZ001>031-035>038-043-044-053-054-212200-
...NORTHERN AND WESTERN MISSOURI...

CITY           SKY/WX    TMP DP  RH WIND       PRES   REMARKS
KANSAS CTY INT SUNNY     71  36  27 N8        29.91F
KANSAS C DTWN  SUNNY     72  43  35 W3        29.90F
LEE`S SUMMIT   SUNNY     70  48  45 CALM      29.91F
ST JOSEPH      SUNNY     70  36  28 CALM      29.92F
CHILLICOTHE      N/A     71  44  37 W6        29.91S
KIRKSVILLE     SUNNY     70  48  45 CALM      29.89F

$$
MOZ066>068-077>081-088>096-101>105-212200-
...SOUTHWEST MISSOURI...

CITY           SKY/WX    TMP DP  RH WIND       PRES   REMARKS
SPRINGFIELD    LGT RAIN  60  58  92 N8        29.89S
JOPLIN         MOSUNNY   69  53  56 N15       29.91F
BRANSON        CLOUDY    57  57 100 N6        29.89S

$$
MOZ032>034-039>042-045>050-055>058-069>072-212200-
...CENTRAL MISSOURI...

CITY           SKY/WX    TMP DP  RH WIND       PRES   REMARKS
COLUMBIA       MOSUNNY   68  58  70 E5        29.89F
JEFFERSON CITY CLOUDY    66  56  70 NE3       29.89F
ROLLA          CLOUDY    60  59  96 NE6       29.89S FOG
SEDALIA        MOSUNNY   73  52  47 NW6       29.89F
WHITEMAN AFB   MOSUNNY   71  51  50 N6        29.89F
WARRENSBURG    SUNNY     70  50  49 NW7       29.90S
OSAGE BEACH    CLOUDY    65  58  78 N6        29.90F

$$
MOZ051-052-059>065-212200-
...EAST CENTRAL MISSOURI...

CITY           SKY/WX    TMP DP  RH WIND       PRES   REMARKS
ST LOUIS INTL  CLOUDY    67  56  67 VRB5      29.90S
SPIRIT OF STL  CLOUDY    66  59  78 NE5       29.89S
ST CHARLES     CLOUDY    64  60  87 NE5       29.89F

$$
MOZ072>076-082>087-097>100-106>115-212200-
...SOUTH CENTRAL AND SOUTHEAST MISSOURI...

CITY           SKY/WX    TMP DP  RH WIND       PRES   REMARKS
CAPE GIRARDEAU CLOUDY    61  55  81 SE9       29.88F
FARMINGTON     CLOUDY    61  54  77 CALM      29.90R
POPLAR BLUFF   CLOUDY    61  59  93 NE6       29.86F
WEST PLAINS    CLOUDY    59  56  89 VRB6      29.88S

$$



USA.gov is the U.S. government's official web portal to all federal, state and local government web resources and services.